Location: Darmstadt
(49.8706°N, 8.6494°E)
Time: 07:29:19
(UTC+01:00)

IRS-1C Rocket - Pass Details

Date: 31 October 2020
Orbit: 800 x 805 km, 99.0° (Epoch: 02 December)

Event Time Altitude Azimuth Distance (km) Brightness Sun altitude
Rises 18:37:41 0° 168° (SSE) 3,304 7.2 -15.6°
Reaches altitude 10° 18:40:01 10° 171° (S) 2,378 6.5 -15.9°
Maximum altitude 18:45:16 73° 256° (WSW) 844 4.3 -16.8°
Drops below altitude 10° 18:50:35 10° 341° (NNW) 2,398 6.8 -17.6°
Sets 18:52:56 0° 344° (NNW) 3,334 7.5 -18.0°
